RH
100 100 100 100 100 100 100 100 83 54 62 85 83 71 54 53 53 44 49 62 47 44 36 35 32 30 31 28 22 18 11 11 4 2 2 2 2 2 3 4 5 8 9 10 12 17 18
93 100 100 82 74 100 71 88 57 45 39 98 96 87 64 58 62 48 52 47 46 54 38 36 33 32 34 32 25 23 17 12 8 3 3 3 2 2 3 3 5 7 9 10 12 18 19
60 85 100 94 70 72 72 57 51 44 32 64 100 87 77 69 74 49 58 50 49 62 40 38 34 37 41 38 32 26 24 14 15 5 3 3 2 2 3 3 5 7 9 10 12 17 19
77 81 98 100 100 100 98 86 62 63 42 37 100 90 87 87 86 60 63 62 68 72 44 39 36 42 51 41 39 30 26 21 15 13 4 4 3 3 4 4 4 6 9 10 13 16 17
61 73 89 100 100 87 100 97 66 74 64 32 77 77 100 98 87 66 80 89 87 80 52 41 40 37 45 38 42 37 30 29 20 17 11 4 5 4 5 5 5 6 10 10 12 16 16
74 69 66 91 100 100 100 97 75 99 88 78 49 93 88 78 98 70 78 96 99 80 58 43 45 42 45 45 44 45 36 32 30 20 19 10 5 5 6 6 7 7 9 11 11 14 14
76 85 83 75 98 86 84 100 92 96 94 80 77 90 89 66 61 58 63 84 100 90 71 52 42 44 41 50 46 45 39 36 34 30 20 20 8 6 7 7 8 8 9 12 12 14 13
82 70 67 90 100 95 90 100 100 82 91 86 99 94 83 62 57 58 64 78 98 98 71 57 46 44 50 54 55 53 51 40 37 36 34 22 22 9 8 10 9 10 9 11 14 15 14
85 92 77 73 83 100 92 99 100 100 89 100 80 87 81 70 75 77 67 86 88 92 78 58 56 47 50 49 68 66 54 56 41 38 42 34 22 26 11 9 11 10 11 11 14 16 16
90 87 86 82 74 83 100 100 100 100 91 96 83 80 94 94 75 91 84 88 88 82 64 52 62 49 45 48 57 59 64 63 55 43 43 36 33 24 31 14 11 13 12 13 13 15 17
83 88 90 91 81 70 99 100 100 100 85 88 93 89 100 100 100 100 93 86 100 91 64 45 54 53 46 47 44 50 57 54 61 54 44 40 38 33 27 35 22 13 14 14 14 15 16
80 100 100 93 90 84 74 99 100 100 99 100 100 100 89 100 100 100 100 92 100 98 69 46 48 57 56 54 52 55 53 53 53 60 53 44 43 38 35 29 36 29 14 14 15 16 16
96 96 100 100 82 80 84 93 100 100 100 100 100 100 100 98 100 100 100 92 98 99 79 60 53 57 58 58 60 59 66 59 59 62 65 52 43 42 38 38 29 37 33 14 14 16 19
56 85 100 100 100 95 94 94 100 100 100 100 100 100 100 97 100 100 100 100 98 93 81 67 62 69 64 59 57 57 53 73 74 62 64 63 50 45 43 40 39 27 35 37 15 13 16
46 88 100 100 100 100 98 92 100 100 100 100 97 100 100 100 100 100 100 94 89 92 79 75 76 88 84 61 56 65 58 51 54 69 75 71 64 47 49 42 40 39 28 32 41 16 13
84 97 95 100 100 100 100 92 100 100 100 100 93 100 100 100 100 96 99 100 100 89 92 96 78 78 82 81 66 58 64 53 57 76 80 83 70 58 52 52 44 42 39 30 31 47 19
54 91 100 100 100 100 97 100 98 88 100 100 100 100 100 100 100 98 100 100 100 97 94 83 76 84 81 76 65 63 70 56 69 79 90 83 77 80 54 56 51 48 44 40 32 30 48
32 69 100 98 100 100 100 100 100 100 100 100 100 100 100 100 100 88 100 100 100 76 70 72 95 77 84 66 61 77 64 59 58 67 96 97 67 96 69 67 54 61 54 46 42 35 29
37 66 100 93 100 100 100 97 94 100 100 100 100 100 100 100 100 100 100 100 78 62 58 77 84 88 93 75 56 60 61 61 53 62 74 93 81 75 76 88 63 56 58 54 49 42 39
36 55 96 100 100 96 76 59 73 98 93 98 98 98 99 100 100 100 100 100 77 63 68 78 91 88 86 73 67 55 60 66 56 64 65 64 66 67 72 59 68 63 62 62 59 52 42
37 48 81 100 91 97 90 75 75 84 94 91 79 100 100 95 85 93 100 100 88 83 75 82 95 88 86 65 68 72 53 58 71 74 69 54 52 56 74 66 66 74 56 63 67 59 47
47 54 70 95 83 99 82 57 72 75 100 100 100 100 88 94 100 91 92 83 79 84 100 100 100 95 76 79 73 72 47 64 98 99 61 49 51 50 52 48 47 50 50 58 58 62 57
60 61 57 99 100 100 100 100 100 100 100 100 100 100 100 100 100 100 99 89 100 100 100 100 90 65 87 90 72 60 60 95 98 94 59 54 62 63 77 77 87 89 70 64 60 50 55
96 88 86 100 100 100 100 100 100 100 100 100 100 100 100 100 100 95 93 87 83 98 78 88 78 57 63 66 64 61 99 100 99 69 61 76 76 65 70 67 73 87 66 61 65 66 58
100 100 100 100 100 100 100 100 100 100 100 100 100 100 100 97 100 93 82 93 81 59 60 62 64 60 55 60 67 84 100 100 75 91 97 98 87 85 78 68 70 88 66 54 57 63 59
69 100 100 100 100 100 100 91 100 100 100 100 100 100 99 79 72 84 87 86 61 66 54 72 66 72 73 83 77 84 88 76 98 86 83 90 100 100 100 95 86 100 88 67 60 58 55
94 99 95 100 100 100 100 100 100 100 100 100 100 86 75 69 100 99 97 95 96 94 94 97 78 84 98 99 100 100 81 100 88 87 89 96 96 96 97 95 98 100 80 71 61 57 62
84 100 100 100 100 100 100 100 100 100 100 93 77 90 100 100 100 100 100 100 100 100 90 85 98 100 100 100 97 89 70 77 83 97 94 100 99 91 91 89 89 85 86 72 78 70 68
51 100 95 100 100 100 100 100 100 100 100 100 100 100 100 100 100 100 100 100 100 100 91 80 84 83 88 85 86 83 80 80 75 89 96 99 98 92 77 77 94 91 79 74 68 64 60
Wind_Speed
16 15 18 23 25 24 22 13 21 24 27 23 26 33 32 33 39 42 45 48 54 62 68 70 68 72 76 78 79 76 72 68 51 33 23 16 21 31 44 59 71 80 85 89 91 95 92
16 15 18 18 20 24 21 21 24 27 30 25 25 30 32 36 40 42 46 49 54 60 68 70 69 71 75 78 81 78 77 74 63 44 28 17 15 22 35 50 64 74 86 87 89 97 95
24 21 19 22 26 26 25 27 26 26 29 31 26 28 33 35 42 42 44 49 56 59 67 71 71 72 74 77 81 83 80 76 73 58 38 24 14 16 26 40 58 70 85 88 89 96 96
30 29 26 21 21 23 24 27 26 28 30 30 28 31 33 34 37 41 44 49 55 58 66 70 72 72 74 74 78 82 80 81 77 71 50 33 19 10 17 30 50 67 82 87 90 95 95
33 33 31 27 24 27 31 33 29 29 28 29 28 32 32 34 37 40 43 47 51 56 63 68 70 69 69 70 77 80 82 81 79 77 67 45 28 13 9 22 40 62 76 87 90 94 95
38 39 39 36 32 27 27 30 28 26 22 27 29 29 31 32 36 40 42 44 47 54 60 67 65 67 67 69 74 75 79 78 80 77 76 63 39 20 6 14 30 53 69 85 89 91 93
31 34 36 39 37 37 31 34 30 26 29 29 30 30 29 30 35 38 40 42 45 51 58 64 62 63 64 66 71 71 74 76 76 80 77 75 55 30 12 6 22 40 61 77 87 91 89
31 32 36 35 35 35 34 36 37 31 30 30 31 29 28 30 36 37 39 41 44 51 57 62 60 57 61 62 64 68 69 74 73 74 76 76 72 50 22 4 13 30 51 66 83 91 89
32 35 35 34 38 37 34 36 38 36 28 30 28 32 33 34 37 36 39 41 43 47 53 59 57 57 58 60 60 65 64 69 71 69 74 73 70 67 45 15 4 20 38 58 73 85 89
34 38 36 34 33 38 38 34 32 33 30 28 30 31 33 36 37 38 40 41 41 46 50 53 53 54 55 57 54 58 58 61 66 67 69 68 68 65 64 42 10 10 28 48 64 78 89
33 39 40 34 35 35 36 35 36 32 32 30 30 34 32 36 36 39 39 42 40 44 47 49 48 52 54 55 54 56 55 56 61 64 66 65 65 62 60 58 40 8 17 35 55 71 83
34 34 38 35 34 38 36 36 38 32 32 33 36 33 31 32 35 37 39 41 43 45 47 49 49 50 52 54 55 55 54 56 57 61 63 62 61 59 56 54 52 37 7 23 41 60 74
38 36 39 40 43 41 35 30 31 31 33 35 31 31 30 33 34 37 40 40 41 45 45 48 48 47 50 53 54 53 54 52 54 59 61 62 58 54 54 50 47 46 34 8 28 46 65
37 32 37 43 40 34 33 30 27 28 34 31 33 34 38 36 34 37 38 41 43 44 45 45 46 47 49 52 52 52 51 48 50 52 58 58 55 51 50 49 44 41 42 34 8 32 49
38 34 39 49 38 29 31 30 28 31 33 31 35 35 40 39 38 39 41 45 47 45 44 44 48 46 48 49 51 51 51 49 50 50 53 58 52 48 47 46 44 40 37 37 34 6 34
46 43 40 45 39 34 30 31 26 30 34 36 34 35 38 38 40 41 44 42 43 44 42 47 49 49 48 48 51 50 48 48 45 52 53 55 50 46 43 42 40 39 36 33 33 32 5
46 50 35 34 33 34 32 34 32 34 36 39 34 34 37 38 44 46 42 41 42 45 45 49 49 49 47 46 49 51 49 48 45 47 55 53 50 42 41 37 34 33 35 34 28 26 26
48 53 38 30 35 32 33 35 32 35 37 36 36 37 37 44 45 46 38 45 48 50 48 48 50 51 48 48 50 53 51 47 43 47 54 50 46 43 38 38 31 32 32 32 31 26 20
49 45 40 35 40 34 37 35 28 32 36 38 39 40 38 41 44 46 47 49 53 53 49 50 52 53 54 52 50 50 51 51 47 49 52 48 46 36 35 38 37 31 32 29 28 30 25
47 40 43 38 43 43 41 38 34 34 33 36 38 40 45 46 46 46 45 51 53 55 53 55 55 56 57 54 52 51 50 52 52 52 58 51 48 40 32 29 33 33 32 33 30 27 26
49 40 40 41 45 44 46 44 41 38 38 36 37 41 46 52 54 55 53 56 59 57 57 57 58 61 62 55 53 60 54 55 55 56 60 48 42 36 37 31 32 33 34 33 31 29 28
45 42 39 42 44 45 47 47 44 42 43 47 50 46 47 50 52 54 55 56 58 59 57 61 64 66 63 56 57 61 57 56 54 57 55 44 35 32 37 38 35 39 35 33 31 34 32
42 41 41 40 46 48 42 42 44 46 48 53 54 53 51 54 56 57 60 61 59 61 64 68 66 63 59 62 64 63 59 57 56 64 51 46 43 41 41 43 43 44 44 39 39 35 32
44 39 37 42 46 44 45 47 50 53 55 55 58 57 58 58 61 63 62 65 66 69 66 66 68 65 65 65 64 60 58 59 63 58 54 51 49 47 43 48 41 48 49 42 38 40 32
48 46 44 45 48 49 52 57 54 58 59 63 64 64 67 63 63 66 66 68 73 70 66 67 64 65 65 66 64 60 60 63 56 55 58 59 61 58 55 52 47 54 57 50 44 45 37
54 52 53 54 58 59 60 59 59 60 64 68 69 71 71 68 67 67 72 75 70 73 69 68 69 73 73 69 68 63 62 55 49 55 57 61 61 60 60 55 50 49 55 57 53 48 45
61 58 58 53 60 62 63 63 68 68 71 74 73 72 70 62 67 74 77 73 73 72 72 72 77 78 76 73 69 66 59 56 58 57 62 64 66 63 64 55 51 58 60 61 60 55 49
61 64 65 66 71 72 72 69 71 75 73 74 71 66 66 68 68 77 75 81 76 77 77 76 75 77 76 72 71 65 62 64 62 63 65 66 67 65 64 64 61 66 67 67 62 57 54
56 67 69 72 76 74 73 72 71 70 70 65 66 71 73 76 73 76 78 83 82 81 85 83 82 78 76 75 77 75 73 68 70 66 71 72 70 72 71 69 68 70 74 75 72 69 63
Wind_Direction
306 299 306 318 314 328 323 336 333 334 331 329 329 340 339 340 345 347 347 347 347 349 354 356 357 360 1 1 3 7 5 5 3 355 343 296 252 237 225 218 216 212 211 212 212 216 218
277 290 305 307 311 321 320 311 320 323 327 323 320 334 334 337 342 344 347 346 349 348 353 356 357 360 2 4 5 9 11 7 8 4 358 337 270 238 226 218 214 210 209 209 209 214 216
264 280 300 305 308 308 309 313 314 320 323 322 320 327 334 334 337 342 345 344 346 348 352 355 358 360 3 7 6 10 14 11 10 11 5 356 318 252 227 217 211 207 206 206 207 212 214
264 270 277 296 301 309 306 309 314 321 323 316 317 328 329 331 336 338 342 343 344 346 350 354 357 1 2 5 7 10 13 15 12 14 13 6 353 298 234 218 209 206 204 204 206 210 212
264 267 272 279 287 293 303 306 313 317 320 312 315 324 325 327 332 337 339 342 342 345 347 352 357 360 1 4 8 10 12 15 15 15 16 16 8 348 252 216 209 206 204 202 205 208 211
264 268 269 272 274 280 304 305 310 309 318 320 316 323 322 326 330 334 339 340 339 341 343 350 357 359 0 4 8 10 12 14 18 18 18 18 15 8 321 216 207 206 204 203 204 208 209
273 270 273 273 274 277 278 299 306 306 316 318 319 319 318 322 329 331 334 339 337 338 341 347 355 358 2 3 7 9 12 14 16 20 20 21 19 17 9 226 209 207 205 205 205 207 208
287 282 274 276 271 277 278 292 299 297 306 310 312 310 314 322 330 329 332 340 337 339 341 346 352 356 2 3 5 8 10 13 15 17 19 21 22 23 17 348 208 208 207 205 206 208 208
283 283 285 282 271 276 278 282 290 294 303 307 310 313 318 323 325 328 331 336 336 337 341 345 347 355 0 2 3 6 9 12 13 15 17 18 23 25 24 14 234 209 211 208 206 207 209
283 283 285 288 288 274 275 276 282 289 295 308 310 310 319 319 322 322 329 333 333 335 341 345 345 352 358 3 3 7 9 11 13 13 16 18 20 25 28 25 5 220 211 214 210 208 209
290 290 281 281 284 284 273 271 275 285 289 301 309 312 319 316 319 323 327 334 330 335 339 346 345 352 356 3 6 6 8 11 10 11 12 15 18 20 25 30 27 347 220 214 216 213 211
297 292 283 278 282 281 285 274 275 280 290 297 300 311 315 315 315 321 326 330 329 331 339 343 343 346 354 359 2 5 7 7 9 8 9 9 12 16 19 24 30 29 328 224 215 218 216
281 290 283 280 280 287 284 282 274 277 287 293 306 307 303 307 314 318 323 329 327 327 334 339 341 344 350 355 357 358 359 2 8 8 5 6 7 10 15 17 24 30 28 317 227 217 218
275 281 280 277 279 285 288 290 277 278 284 290 293 296 303 303 310 315 318 322 321 322 329 337 340 341 343 350 355 355 357 357 359 3 7 2 3 5 8 13 15 22 28 27 320 227 220
298 291 278 276 272 276 281 284 276 270 278 284 285 295 305 300 301 310 318 319 319 316 328 335 337 338 337 344 350 353 352 355 358 356 358 2 357 1 4 7 10 15 21 27 28 320 227
296 287 281 260 261 268 274 279 279 279 281 288 291 295 302 302 300 312 317 313 311 311 323 329 330 335 335 336 342 346 349 350 351 355 353 353 356 352 358 2 5 9 13 20 28 31 340
299 295 276 256 255 265 265 276 282 279 282 286 286 290 298 296 302 306 312 305 304 307 317 325 328 330 331 331 337 339 344 343 343 348 348 347 347 347 348 355 358 4 8 8 17 30 35
305 295 264 250 257 259 265 276 280 280 280 284 287 290 292 299 306 309 307 302 303 304 307 319 321 326 327 328 330 331 335 340 339 347 345 341 342 338 338 344 350 350 349 0 4 11 20
300 286 254 242 247 254 256 265 277 292 281 280 282 288 288 293 298 301 299 297 300 306 311 314 316 319 321 323 332 327 329 334 334 339 342 334 332 329 332 335 342 343 343 344 349 355 360
294 272 249 243 251 261 264 267 274 286 285 283 286 282 283 291 293 297 297 298 301 307 307 309 311 314 316 317 323 325 326 328 331 334 338 333 327 325 318 326 330 343 341 337 336 343 347
290 270 250 245 252 262 271 263 270 277 287 287 291 286 284 286 289 294 297 297 301 302 304 305 308 311 312 313 319 321 320 324 329 330 332 330 327 322 319 317 318 326 337 335 330 332 330
282 264 254 249 257 262 265 262 268 277 282 286 287 287 289 292 292 293 295 301 304 305 303 301 303 307 310 310 312 315 315 322 321 322 325 323 325 325 316 322 321 322 326 327 326 322 320
278 264 260 259 258 265 271 278 276 278 280 278 281 285 285 289 293 293 298 303 301 301 301 302 304 308 308 308 309 311 316 317 314 315 315 318 325 327 320 325 320 315 321 320 318 316 311
270 271 264 255 260 265 273 277 276 278 282 281 281 283 284 288 291 292 296 298 300 302 302 301 301 306 306 307 309 312 312 310 310 314 312 314 315 315 314 315 314 308 313 315 315 306 305
263 265 264 263 266 270 271 272 274 277 279 275 276 279 282 287 290 293 296 297 299 299 302 303 304 306 307 309 311 310 307 307 312 315 312 311 311 310 310 311 310 307 306 311 311 305 301
268 256 256 259 261 267 270 270 273 273 273 275 277 280 281 285 290 292 294 298 298 302 304 303 304 307 308 304 304 303 305 307 307 309 309 308 307 306 306 306 307 301 299 303 304 304 299
274 265 261 258 259 260 260 264 270 271 273 274 277 282 283 288 290 291 297 298 297 299 302 301 304 305 301 298 297 298 305 304 307 313 312 309 304 302 300 299 297 298 297 296 298 299 296
268 256 256 254 257 261 262 264 268 272 275 279 284 286 287 289 292 293 295 296 296 296 299 303 303 300 298 295 296 295 298 299 302 305 309 304 301 297 294 292 291 291 290 291 291 294 294
271 257 260 258 260 264 268 273 275 275 278 280 276 278 283 286 289 291 294 294 296 297 299 299 300 297 296 292 293 293 297 298 302 302 300 301 299 293 291 290 288 290 289 287 286 285 287